Location: Godzisko
(49.9648°N, 19.4576°E)
Time: 02:24:51
(UTC+00:00)

USA 306 - Pass Details

Date: 20 April 2021
Orbit: 565 x 575 km, 54.0° (Epoch: 07 May)

Event Time Altitude Azimuth Distance (km) Brightness Sun altitude
Rises 02:53:25 0° 293° (WNW) 2,784 6.0 -7.6°
Reaches altitude 10° 02:55:41 10° 295° (WNW) 1,886 5.2 -7.3°
Maximum altitude 02:59:59 74° 20° (NNE) 602 3.2 -6.6°
Drops below altitude 10° 03:04:16 10° 107° (ESE) 1,884 6.3 -6.0°
Sets 03:06:32 0° 109° (ESE) 2,781 7.2 -5.7°
